This is the latest recevied weather packets stored in our database for station/object WE0DX-1. If no packets are shown the sender has not sent any weather packets the latest 10 day(s).
| Time | Temp. | Humidity | Pressure | Rain* | Wind** | Luminosity | Snow |
|---|---|---|---|---|---|---|---|
| 1777848819 | 26.67° C | 35% | 1007.9 hPa | 0 mm | - | 52 W/m² | - |
| 1777848516 | 26.11° C | 35% | 1008.1 hPa | 0 mm | - | 50 W/m² | - |
| 1777848213 | 26.67° C | 35% | 1008 hPa | 0 mm | - | 37 W/m² | - |
| 1777847906 | 26.67° C | 36% | 1007.8 hPa | 0 mm | - | 42 W/m² | - |
| 1777847603 | 26.67° C | 34% | 1007.9 hPa | 0 mm | - | 42 W/m² | - |
| 1777847298 | 26.67° C | 34% | 1008.1 hPa | 0 mm | - | 44 W/m² | - |
| 1777846997 | 26.67° C | 36% | 1008.1 hPa | 0 mm | - | 45 W/m² | - |
| 1777846695 | 26.67° C | 35% | 1008.1 hPa | 0 mm | - | 41 W/m² | - |
| 1777846393 | 26.67° C | 36% | 1008 hPa | 0 mm | - | 42 W/m² | - |
| 1777846089 | 26.67° C | 35% | 1008.2 hPa | 0 mm | - | 95 W/m² | - |
| 1777845786 | 27.22° C | 34% | 1008.2 hPa | 0 mm | - | 49 W/m² | - |
| 1777845482 | 26.67° C | 35% | 1008.3 hPa | 0 mm | - | 54 W/m² | - |
| 1777845179 | 26.67° C | 35% | 1008.3 hPa | 0 mm | - | 53 W/m² | - |
| 1777844877 | 26.67° C | 35% | 1008.3 hPa | 0 mm | - | 77 W/m² | - |
| 1777844574 | 26.67° C | 36% | 1008.6 hPa | 0 mm | - | 50 W/m² | - |
| 1777844272 | 26.67° C | 35% | 1008.4 hPa | 0 mm | - | 64 W/m² | - |
| 1777843969 | 26.67° C | 35% | 1008.6 hPa | 0 mm | - | 96 W/m² | - |
| 1777843665 | 26.67° C | 34% | 1008.6 hPa | 0 mm | - | 55 W/m² | - |
| 1777843363 | 26.67° C | 34% | 1008.6 hPa | 0 mm | - | 66 W/m² | - |
| 1777843061 | 26.67° C | 35% | 1008.5 hPa | 0 mm | - | 78 W/m² | - |
| 1777842757 | 26.67° C | 35% | 1008.6 hPa | 0 mm | - | 264 W/m² | - |
| 1777842452 | 27.22° C | 36% | 1008.9 hPa | 0 mm | - | 451 W/m² | - |
| 1777842150 | 26.67° C | 35% | 1008.9 hPa | 0 mm | - | 475 W/m² | - |
| 1777841845 | 27.22° C | 35% | 1008.8 hPa | 0 mm | - | 445 W/m² | - |
| 1777841541 | 26.67° C | 35% | 1008.9 hPa | 0 mm | - | 579 W/m² | - |
* Rain latest hour (hover to see other rain measurements)
** Current wind speed in m/s (hover to see current wind gust speed)